User: anonymous   Login
Location: Ciudad Delicias
(28.2170°N, 105.4670°W)
Time: 20:41:23
(UTC-07:00)
Language:

ETS-7 - Orbit

View from above orbital plane
View from above orbital plane
View from above satellite
View from above satellite

Ground track
Ground track

The orbit data is extracted from the following two-line orbital elements,

1 25064U 97074B   14297.99266653  .00039809  00000-0  60387-3 0  2880
2 25064 034.9598 136.5028 0003102 249.0167 237.6483 15.53541981941332
Epoch (UTC): 24 October 2014 23:49:26
Eccentricity: 0.0003102
inclination: 34.9598°
perigee height: 404 km
apogee height: 408 km
right ascension of ascending node: 136.5028°
argument of perigee: 249.0167°
revolutions per day: 15.53541981
mean anomaly at epoch: 237.6483°
orbit number at epoch: 94133

The dashed part of the orbit path shows where the satellite is in the earth's shadow,  

DLR